Probability
0 0 0 0 0 0 0 0 0 0 0 0 0 1 1 2 5 6 5 4 3 4 5 5 4 2 1 0 1 3 4 4 4 4 4 3 1 1 3 3 2 1 0 0
0 0 0 0 0 0 0 0 0 0 0 0 0 1 2 3 5 5 4 3 3 3 3 4 3 2 0 1 2 3 4 3 2 2 2 1 1 2 3 3 2 1 0 0
0 0 0 0 0 0 0 0 0 0 0 0 0 2 4 5 5 4 3 2 1 1 1 3 3 2 1 1 3 3 3 2 2 1 1 0 1 3 3 3 2 1 0 0
0 0 0 0 0 0 0 1 1 2 1 0 1 2 5 6 4 1 1 1 0 0 1 2 2 1 1 2 3 3 3 2 2 1 0 0 2 3 3 3 2 1 0 0
0 0 0 0 0 1 1 2 3 4 3 1 1 2 3 3 1 0 0 0 0 0 0 1 1 0 1 2 3 2 2 2 2 1 1 0 1 2 2 2 1 0 0 0
0 0 0 0 0 1 1 2 3 4 3 1 0 1 1 1 0 0 0 0 0 0 0 1 1 1 1 1 1 1 1 1 2 2 1 0 0 1 2 2 1 0 0 0
0 0 0 0 0 1 1 1 2 3 2 1 0 0 0 0 0 0 0 0 0 0 1 2 2 1 0 0 0 0 1 1 2 1 1 0 0 1 2 3 2 0 0 0
0 0 0 1 1 0 0 0 1 1 1 0 0 0 0 0 0 0 0 0 0 0 1 2 1 0 0 0 0 0 1 2 1 1 1 1 1 1 2 2 1 0 0 0
0 0 0 1 1 0 0 0 0 0 0 0 0 0 0 0 0 0 0 0 0 0 1 1 1 0 0 0 0 0 1 1 2 2 2 2 2 1 1 1 0 0 0 0
0 0 0 1 1 0 0 0 0 0 0 0 0 0 0 0 0 0 0 0 0 0 0 0 0 0 0 0 0 0 0 1 2 3 3 3 3 2 0 0 0 0 0 0
0 0 0 0 0 0 0 0 0 0 0 0 0 0 0 0 0 0 0 0 0 0 0 0 0 0 0 0 0 0 0 1 2 2 2 2 2 1 0 0 0 0 0 0
0 0 0 0 0 0 0 0 0 0 0 0 0 0 0 0 0 0 0 0 0 0 0 0 0 0 0 0 0 0 0 0 1 1 1 1 1 0 0 0 0 0 0 0
0 0 0 0 0 0 0 0 0 0 0 0 0 0 0 0 0 0 0 0 0 0 0 0 0 0 0 0 0 0 0 0 0 0 0 0 0 0 0 0 0 0 0 0
0 0 0 0 0 0 0 0 0 0 0 0 0 0 0 0 0 0 0 0 0 0 0 0 0 0 0 0 0 0 0 0 0 0 0 0 0 0 0 0 0 0 0 0
0 0 0 0 0 0 0 0 0 0 0 0 0 0 0 0 0 0 0 0 0 0 0 0 0 0 0 0 0 0 0 0 0 0 0 0 0 0 0 0 0 0 0 0
0 0 0 0 0 0 0 0 0 0 0 0 0 0 0 0 0 0 0 0 0 0 0 0 0 0 0 0 0 0 0 0 0 0 0 0 0 0 0 0 0 0 0 0
0 0 0 0 0 0 0 0 0 0 0 0 0 0 0 0 0 0 0 0 0 0 0 0 0 0 0 0 0 0 0 0 0 0 0 0 0 0 0 0 0 0 0 0
0 0 0 0 0 0 0 0 0 0 0 0 0 0 0 0 0 0 0 0 0 0 0 0 0 0 0 0 0 0 0 0 0 0 0 0 0 0 0 0 0 0 0 0
0 0 0 0 0 0 0 0 0 0 0 0 0 0 0 0 0 0 0 0 0 0 0 0 0 0 0 0 0 0 0 0 0 0 0 0 0 0 0 0 0 0 0 1
0 0 0 0 0 0 0 0 0 0 0 0 0 0 0 0 0 0 0 0 0 0 0 0 0 0 0 0 0 0 0 0 0 0 0 0 0 0 0 0 0 0 0 1
0 0 0 0 0 0 0 0 0 0 0 0 0 0 0 0 0 0 0 0 0 0 0 0 0 0 0 0 0 0 0 0 0 0 0 0 0 0 0 0 0 0 0 1
0 0 0 0 0 0 0 0 0 0 0 0 0 0 0 0 0 0 0 0 0 0 0 0 0 0 0 0 0 0 0 0 0 0 0 0 0 0 0 0 0 0 0 0
0 0 0 0 0 0 0 0 0 0 0 0 0 0 0 0 0 0 0 0 0 0 0 0 0 0 0 0 0 0 0 0 0 0 0 0 0 0 0 0 0 0 0 0
0 0 0 0 0 0 0 0 0 0 0 0 0 0 0 0 0 0 0 0 0 0 0 0 0 0 0 0 0 0 0 0 0 0 0 0 0 0 0 0 0 0 0 0
0 0 0 0 0 0 0 0 0 0 0 0 0 0 0 0 0 0 0 0 0 0 0 0 0 0 0 0 0 0 0 0 0 0 0 0 0 0 0 0 0 0 0 0
0 0 0 0 0 0 0 0 0 0 0 0 0 0 0 0 0 0 0 0 0 0 0 0 0 0 0 0 0 0 0 0 0 0 0 0 0 0 0 0 0 0 0 0
0 0 0 0 0 0 0 0 0 0 0 0 0 0 0 0 0 0 0 0 0 0 0 0 0 0 0 0 0 0 0 0 0 0 0 0 0 0 0 0 0 0 0 0
Wind_Speed
9 10 10 10 10 10 10 10 10 10 10 7 6 5 3 1 1 1 2 2 2 2 1 1 2 2 2 2 2 3 3 3 2 2 3 3 3 3 3 3 4 3 4 4
9 9 9 10 9 9 9 8 9 10 8 5 4 3 2 1 2 2 2 2 2 1 1 1 1 2 2 2 2 3 3 3 2 2 2 2 3 3 3 3 4 4 4 4
8 8 9 7 5 6 6 6 7 8 6 6 4 4 3 2 2 2 2 2 2 2 2 2 2 2 2 2 2 3 3 3 2 2 2 3 3 2 3 3 4 4 4 4
7 7 6 2 3 5 5 4 5 5 6 6 5 4 2 2 2 1 1 2 2 2 2 2 2 2 2 2 3 3 3 3 2 2 3 3 3 3 3 3 4 4 4 4
6 7 5 1 3 6 6 3 5 6 7 6 5 3 0 2 2 1 1 2 2 2 3 3 3 3 2 3 3 3 2 2 2 2 3 3 3 3 3 3 4 4 4 4
6 7 4 5 7 8 7 2 7 9 8 7 6 5 3 3 2 1 1 2 2 2 3 3 3 3 3 3 3 3 2 2 1 2 3 3 3 4 4 3 4 4 4 4
7 6 3 6 8 6 4 6 9 9 9 7 6 6 4 3 1 0 1 2 3 3 3 2 3 3 3 3 3 2 2 2 2 2 3 3 3 3 4 4 4 4 4 4
5 5 1 8 7 6 7 8 8 8 7 6 5 3 2 1 1 1 2 3 3 2 2 2 3 3 3 2 2 2 2 2 1 2 3 2 2 3 4 4 5 4 3 3
5 5 5 6 5 6 7 8 8 7 6 5 3 2 1 1 1 1 2 3 3 3 3 2 2 3 2 2 2 2 2 1 1 2 2 3 3 3 4 3 4 4 3 3
7 6 8 7 5 5 7 8 8 7 5 4 3 1 1 1 1 1 2 2 2 3 3 2 2 2 2 2 2 2 1 1 1 1 2 1 3 3 3 3 3 4 4 3
9 8 8 6 7 8 9 8 7 5 4 3 2 1 0 1 1 1 2 2 2 2 2 2 2 2 2 2 2 2 1 1 1 1 1 2 2 2 3 3 3 4 4 4
8 8 9 10 10 10 9 7 6 5 3 2 1 1 1 1 1 2 2 2 2 2 2 2 2 2 2 2 2 1 1 1 1 1 1 2 2 2 1 2 1 2 4 5
10 11 10 10 9 9 7 6 5 3 2 1 1 1 2 2 2 2 2 3 2 2 2 2 2 2 2 2 2 1 1 1 1 2 2 2 2 2 2 1 4 4 4 4
8 8 9 8 8 7 6 5 3 1 0 1 1 2 2 3 3 3 3 2 2 2 2 2 2 2 2 1 1 0 1 1 1 1 2 3 3 3 3 3 3 1 2 4
8 8 8 7 7 6 5 3 2 1 1 1 2 3 3 3 3 3 3 2 2 2 2 2 2 2 1 1 1 1 1 1 1 2 2 2 3 3 3 3 3 3 3 1
8 7 6 6 6 5 5 3 2 1 1 2 2 3 3 3 3 3 3 3 2 2 2 1 2 2 1 1 1 1 1 1 2 3 2 2 3 3 3 3 3 4 4 4
7 6 5 5 5 5 4 3 2 2 3 3 3 4 4 4 4 4 3 3 2 2 2 2 1 1 1 1 2 1 0 2 3 3 2 3 3 4 4 4 4 4 4 5
6 6 5 5 5 4 4 3 3 3 3 4 5 5 5 4 4 3 3 3 2 2 2 2 1 1 1 1 1 2 1 1 1 2 3 3 4 4 4 4 4 5 4 4
4 3 3 4 4 4 4 3 3 3 4 5 5 5 5 4 3 3 3 3 2 3 2 2 1 2 1 1 2 2 2 2 1 2 2 2 2 3 4 4 4 5 5 5
3 2 3 3 3 2 2 2 2 3 4 5 5 5 5 4 4 4 4 3 1 2 3 2 2 2 1 1 3 2 1 1 2 2 2 2 3 4 4 4 5 5 5 5
4 3 3 3 2 2 2 2 3 3 4 5 5 5 4 4 4 4 4 3 3 2 3 3 2 1 1 1 3 2 1 1 2 2 2 3 3 4 4 4 5 5 5 5
4 3 3 3 3 2 1 2 3 5 5 5 5 5 5 5 4 4 3 1 4 3 2 3 2 2 2 2 2 1 1 1 2 2 2 3 3 4 4 5 4 4 4 5
4 3 3 3 3 2 2 3 4 4 5 5 5 5 5 4 3 3 3 3 3 3 2 2 4 4 1 3 1 0 1 2 2 2 2 3 3 3 4 4 4 5 5 5
4 4 4 3 2 2 2 3 3 3 4 4 5 5 5 4 3 2 3 5 4 4 2 4 4 3 4 2 0 1 1 1 2 2 2 2 2 3 4 4 4 4 5 5
5 4 4 3 3 2 2 3 3 4 5 4 5 5 4 3 3 3 4 6 6 4 4 6 5 4 4 1 1 1 2 2 3 3 2 3 3 3 4 4 5 4 4 5
5 4 4 4 3 3 3 3 4 4 4 4 4 4 4 3 4 5 4 6 6 4 3 4 5 5 3 1 2 1 1 2 1 1 2 2 3 3 4 4 5 4 4 4
5 4 4 4 3 3 3 4 4 4 4 4 4 4 4 4 5 5 5 5 5 5 4 3 4 4 3 2 2 2 1 1 1 2 2 2 3 3 3 4 4 4 4 4
Wind_Direction
288 289 288 288 289 287 278 281 285 293 302 320 331 331 331 313 249 216 200 201 194 181 171 186 180 178 186 189 181 188 198 210 212 222 233 233 229 232 242 249 257 265 273 275
280 278 280 283 286 283 282 283 280 284 293 332 338 330 322 282 234 231 227 218 206 181 180 201 191 193 186 186 184 190 206 221 220 230 238 243 244 244 251 261 274 276 276 280
286 297 282 276 305 296 286 289 295 303 326 338 326 326 328 298 257 237 235 208 196 184 195 201 197 193 199 192 188 195 214 229 232 237 251 264 272 270 266 272 276 276 275 277
288 291 273 20 10 325 310 316 337 337 338 336 334 335 332 317 305 276 231 193 185 185 190 194 190 194 195 195 193 202 218 228 234 243 259 272 278 283 280 279 281 281 281 285
284 279 278 324 2 337 312 318 10 357 351 344 342 294 160 23 349 320 218 174 182 192 187 189 192 190 199 203 199 210 223 234 240 251 270 274 279 293 290 285 285 283 282 283
278 284 291 24 9 337 293 269 24 354 341 335 319 296 23 15 335 320 143 162 174 176 175 180 187 190 196 193 202 211 225 236 243 265 279 282 290 292 293 286 280 283 289 287
267 270 292 25 354 323 305 2 348 333 331 328 326 343 1 339 339 122 158 159 164 168 171 174 176 181 189 194 205 213 218 220 224 253 267 267 283 289 289 291 294 288 290 288
276 267 325 15 348 350 342 330 322 323 327 331 335 344 344 2 74 134 152 156 155 154 152 160 165 175 189 201 204 200 205 207 231 271 280 288 290 292 294 296 285 275 276 287
306 311 341 325 320 324 316 314 319 321 323 321 314 312 336 38 92 137 151 151 154 151 150 153 169 189 190 192 191 187 195 226 270 292 292 298 293 293 290 288 294 309 316 326
281 284 308 314 320 325 323 318 317 315 311 307 307 304 323 92 113 135 141 145 152 155 154 151 169 182 181 178 174 191 209 235 265 271 286 294 297 306 317 323 324 327 330 337
274 290 304 314 330 328 322 320 319 313 309 305 291 265 242 132 122 127 135 135 144 154 142 145 159 162 160 160 173 192 237 256 260 277 320 305 308 325 323 344 349 323 329 331
285 305 302 304 314 315 312 312 313 306 298 293 273 232 196 154 134 139 138 134 144 148 136 130 135 133 135 151 169 196 217 247 285 304 325 313 339 5 130 218 209 227 258 284
281 288 292 294 298 301 304 306 308 297 277 273 253 198 167 142 134 137 142 140 141 143 131 125 122 112 114 132 160 201 258 312 316 329 332 330 342 337 345 190 199 211 224 244
281 284 283 288 295 299 300 306 313 312 230 202 174 154 145 139 137 141 135 134 140 141 129 126 124 119 126 135 154 203 262 132 283 315 327 330 330 328 333 337 340 349 190 204
282 282 282 288 285 286 287 278 271 252 162 160 155 152 151 151 146 138 133 135 140 140 125 120 120 120 134 142 173 252 294 4 346 332 313 320 324 326 339 348 342 346 354 34
289 283 281 279 278 278 277 267 251 218 180 168 160 156 157 154 143 132 135 149 157 146 133 130 130 140 170 183 220 209 159 65 303 307 320 333 331 336 349 356 354 350 356 3
282 284 285 282 278 281 279 265 245 212 187 176 165 159 157 152 144 141 149 155 154 142 154 159 163 175 189 201 239 249 191 146 210 268 330 347 344 349 354 350 350 350 5 30
278 275 273 274 275 273 275 263 237 206 182 167 162 162 166 165 160 152 155 151 148 139 139 163 179 190 187 193 244 289 290 296 320 343 352 354 350 348 349 347 348 350 359 27
292 285 288 288 278 266 257 244 218 184 168 165 165 169 175 178 171 163 159 162 164 150 148 140 126 221 180 153 265 228 274 303 328 341 343 6 330 343 347 348 353 356 359 358
318 313 307 303 292 271 250 221 194 174 170 173 171 173 178 178 174 168 169 180 169 121 139 147 187 205 189 169 267 262 271 309 336 3 8 1 358 352 349 351 357 2 358 353
324 316 313 318 311 284 244 200 182 176 180 181 181 181 177 176 177 176 189 173 143 136 141 165 207 188 181 133 234 264 276 319 348 12 1 359 1 354 354 360 3 4 358 355
321 313 309 309 301 282 249 200 185 185 183 185 188 185 178 177 174 174 188 150 137 150 192 173 155 77 40 291 246 278 2 8 14 16 10 3 358 359 3 0 1 0 358 1
310 306 299 291 283 267 228 203 190 189 186 190 193 190 184 179 179 180 167 152 147 157 207 119 92 104 241 249 269 2 39 35 23 19 21 12 4 4 4 2 3 3 4 2
302 296 288 280 268 241 214 201 194 192 190 193 185 179 178 177 177 173 129 131 134 155 163 110 128 161 235 243 237 76 73 53 31 16 5 4 8 9 10 9 6 8 11 9
290 287 282 272 249 228 203 199 192 189 187 178 170 172 184 182 165 151 140 142 149 178 164 142 166 199 227 210 129 88 68 44 25 9 18 10 10 18 17 14 10 11 14 17
277 270 269 263 263 247 213 206 202 189 185 175 168 167 166 156 155 150 154 158 160 186 191 156 161 192 203 159 115 94 85 108 116 41 23 14 23 26 24 16 16 18 21 26
264 257 251 245 238 230 220 214 206 193 187 182 171 165 162 163 163 162 165 169 170 181 185 176 168 168 160 142 122 115 105 84 66 49 41 39 38 35 35 30 26 25 22 29